Location: Bori?jhar
(21.0687°N, 82.1406°E)
Time: 17:49:00
(UTC+00:00)

Daily predictions for brighter satellites

Satellite Brightness Start Highest point End
(mag) Time Altitude Azimuth Time Altitude Azimuth Time Altitude Azimuth
STARLINK-1085 4.1 13:29:47 10° NNW 13:33:46 48° NE 13:37:46 10° SE
Cosmos 1452 Rocket 3.5 13:28:35 10° S 13:33:49 78° ESE 13:39:06 10° NNE
Cosmos 2297 4.0 13:28:37 10° S 13:33:56 44° ESE 13:39:18 10° NNE
Meteor 2-4 Rocket 3.9 13:33:29 10° SSE 13:38:35 46° E 13:43:39 10° NNE
STARLINK-1086 3.9 13:34:42 10° NNW 13:38:45 55° NE 13:42:48 10° SE
Cosmos 2369 Rocket 3.9 13:39:11 10° ESE 13:40:58 11° E 13:42:45 10° E
Okean 1-7 3.7 13:39:23 10° SSW 13:43:34 58° W 13:47:45 10° N
SL-4 R/B 3.7 13:39:33 10° WSW 13:43:41 42° NW 13:48:06 10° NNE
STARLINK-1095 3.7 13:39:39 10° NNW 13:43:45 64° NE 13:47:50 10° SE
SL-4 R/B 3.1 13:42:32 10° NNE 13:43:56 13° ENE 13:45:15 10° E
Lacrosse 5 3.6 13:41:13 10° N 13:44:38 18° NE 13:48:02 10° E
COSMOS 2406 3.6 13:39:21 10° N 13:44:52 47° ENE 13:50:19 10° SE
FREGAT/IRIS 4.5 13:45:24 10° ESE 13:46:34 13° ENE 13:47:50 10° NE
GPS 2-14 Rocket1 3.1 13:44:00 10° WSW 13:48:00 47° SSE 13:52:01 10° E
Cosmos 2082 Rocket 3.9 13:44:43 10° NNE 13:48:05 16° ENE 13:51:25 10° ESE
STARLINK-1077 3.6 13:44:34 10° NNW 13:48:42 74° NE 13:52:37 11° SE
Cosmos 1908 Rocket 3.6 13:46:00 10° N 13:50:29 88° W 13:54:57 10° S
Delta 198 4.5 13:45:34 10° W 13:51:18 50° SSW 13:55:41 13° SE
HJ-1C 3.2 13:48:20 10° SSE 13:51:37 80° ENE 13:54:53 10° N
Cosmos 2221 Rocket 3.9 13:48:05 10° SSE 13:52:23 46° E 13:56:43 10° NNE
STARLINK-1075 3.6 13:49:33 10° NW 13:53:42 85° NE 13:57:25 12° SE
Cosmos 1437 Rocket 3.8 13:51:49 10° SSE 13:54:52 24° E 13:57:56 10° NE
Aureole 1 Rocket 4.2 13:50:26 10° N 13:56:26 76° ENE 14:04:06 10° SSE
NOSS 2-2 (D) 4.2 13:53:35 10° SW 13:57:20 50° WNW 14:00:48 10° NNE
STARLINK-1093 3.6 13:54:33 10° NW 13:58:40 84° SW 14:02:13 14° SE
GENESIS II 4.1 13:56:02 10° NNW 13:59:57 83° ENE 14:03:22 13° SSE
SWIFT 2.3 13:56:21 10° W 14:00:38 85° S 14:04:18 14° E
Meteor 1-4 Rocket 4.4 13:59:11 10° SW 14:02:16 31° W 14:05:23 10° NNW
Cosmos 1743 3.3 13:59:05 10° NNW 14:02:48 57° W 14:06:32 10° S
CZ-2C R/B 4.1 13:58:42 10° NNE 14:03:02 41° E 14:07:26 10° S
STARLINK-1074 3.7 13:59:32 10° NW 14:03:38 73° SW 14:07:00 15° SSE
Cosmos 1190 Rocket 4.1 13:59:02 10° NNW 14:04:16 84° WSW 14:09:32 10° S
Cosmos 2034 Rocket 4.3 14:00:18 10° N 14:06:24 69° W 14:12:31 10° S
Meteor 2-9 Rocket 4.2 14:01:40 10° N 14:06:52 57° E 14:12:05 10° SSE
USA 186 2.0 14:06:04 24° ESE 14:07:02 34° ENE 14:09:31 10° N
STARLINK-1365 4.4 14:05:41 10° S 14:09:11 28° ESE 14:12:41 10° ENE
Ariane Rocket 3.1 14:06:23 11° SSE 14:11:10 60° ENE 14:16:10 10° N
SJ-11-01 4.5 14:07:12 10° S 14:11:54 74° WSW 14:16:35 10° NNW
ASC 2 Rocket 3.3 14:07:43 10° WSW 14:12:00 66° SSE 14:17:27 11° E
STARLINK-1088 4.1 14:09:31 10° NW 14:13:32 54° SW 14:16:33 17° SSE
Cosmos 1110 Rocket 3.9 14:09:43 10° S 14:14:52 68° ESE 14:20:00 10° NNE
Okean 3 3.7 14:10:40 10° S 14:14:57 75° W 14:19:14 10° N
Hubble Space Telescope 2.5 14:12:24 10° W 14:15:36 22° SSW 14:17:49 15° SSE
Okean 2 Rocket 4.0 14:12:32 10° NNE 14:16:22 29° E 14:17:52 24° ESE
NOSS 3-4 (A) 4.2 14:11:48 10° SSE 14:16:39 26° ESE 14:21:29 10° NE
NOSS 3-4 (C) 4.2 14:11:56 10° SSE 14:16:45 26° ESE 14:21:33 10° NE
Resurs 01 Rocket 3.6 14:17:40 12° ENE 14:17:58 12° ENE 14:19:49 10° NE
STARLINK-1115 4.4 14:14:30 10° NW 14:18:29 47° SW 14:21:19 18° SSE
Sich 1 Rocket 3.6 14:14:21 10° N 14:18:51 61° E 14:22:06 18° SSE
ISS -2.2 14:18:03 10° N 14:20:50 24° NE 14:21:43 21° ENE
STARLINK-1338 3.9 14:18:12 10° SSW 14:21:54 39° SE 14:25:36 10° NE
Cosmos 1932 4.5 14:15:50 10° NNW 14:22:18 83° ENE 14:26:59 19° SSE
STARLINK-1320 2.7 14:20:10 10° SSW 14:23:14 65° SE 14:26:18 10° NE
Cosmos 304 Rocket 4.3 14:18:42 10° SSW 14:23:24 60° WNW 14:28:07 10° N
STARLINK-1322 2.7 14:20:31 10° SSW 14:23:34 65° SE 14:26:39 10° NE
STARLINK-1324 2.7 14:20:49 10° SSW 14:23:54 66° SE 14:26:58 10° NE
CZ-2C R/B 3.4 14:18:30 10° S 14:23:54 73° WSW 14:29:35 10° NNW
Cosmos 1300 Rocket 4.4 14:20:06 10° NNE 14:24:02 32° E 14:25:07 28° ESE
STARLINK-1294 2.7 14:21:10 10° SSW 14:24:12 67° SE 14:27:16 10° NE
STARLINK-1261 2.7 14:21:30 10° SSW 14:24:35 68° SE 14:27:39 10° NE
STARLINK-1325 2.7 14:21:51 10° SSW 14:24:56 69° SE 14:28:01 10° NE
STARLINK-1333 2.7 14:22:13 10° SSW 14:25:18 70° SE 14:28:23 10° NE
MOS 1 Rocket 3.3 14:21:15 10° N 14:25:29 70° WNW 14:29:50 10° SSW
Cosmos 1954 Rocket 4.0 14:20:14 10° NNW 14:25:32 85° ENE 14:29:28 19° SSE
STARLINK-1334 2.7 14:22:31 10° SSW 14:25:36 71° SE 14:28:41 10° NE
STARLINK-1326 2.6 14:22:51 10° SSW 14:25:55 72° SE 14:29:01 10° NE
STARLINK-1323 2.7 14:23:12 10° SSW 14:26:17 73° SE 14:29:22 10° NE
STARLINK-1349 2.6 14:23:29 10° SSW 14:26:34 74° SE 14:29:40 10° NE
STARLINK-1336 2.6 14:23:50 10° SSW 14:26:55 75° SE 14:30:00 10° NE
Cosmos 1331 Rocket 3.8 14:21:47 10° S 14:26:55 82° ESE 14:32:05 10° NNE
STARLINK-1331 2.6 14:24:12 10° SSW 14:27:17 76° SE 14:30:23 10° NE
STARLINK-1344 2.6 14:24:31 10° SSW 14:27:36 77° SE 14:30:42 10° NE
STARLINK-1343 2.6 14:24:52 10° SSW 14:27:57 78° SE 14:31:03 10° NE
STARLINK-1346 2.6 14:25:11 10° SSW 14:28:16 79° SE 14:31:21 10° NE
STARLINK-1328 2.6 14:25:35 10° SW 14:28:40 80° SE 14:31:46 10° NE
DMSP B5D2-2 4.0 14:23:40 10° NNE 14:28:56 89° WNW 14:34:10 10° SSW
STARLINK-1354 2.6 14:25:53 10° SW 14:28:58 81° SE 14:32:04 10° NE
STARLINK-1347 2.7 14:26:12 10° SW 14:29:17 82° SE 14:32:23 10° NE
STARLINK-1357 2.7 14:26:35 10° SW 14:29:40 83° SE 14:32:46 10° NE
STARLINK-1335 2.7 14:26:53 10° SW 14:29:59 84° ESE 14:33:05 10° NE
ASTEX 1 3.7 14:25:09 10° S 14:29:59 66° W 14:34:52 10° NNW
STARLINK-1371 3.6 14:26:22 10° SSW 14:30:13 50° SE 14:34:03 10° NE
STARLINK-1327 2.7 14:27:14 10° SW 14:30:19 85° SE 14:33:26 10° NE
STARLINK-1340 2.7 14:27:33 10° SW 14:30:38 86° SE 14:33:44 10° NE
STARLINK-1356 2.7 14:27:55 10° SW 14:31:00 87° SE 14:34:06 10° NE
STARLINK-1345 2.7 14:28:14 10° SW 14:31:19 88° SE 14:34:25 10° NE
STARLINK-1355 2.7 14:28:34 10° SW 14:31:40 89° ESE 14:34:46 10° NE
STARLINK-1321 2.7 14:28:55 10° SW 14:32:00 90° WNW 14:35:06 10° NE
Cosmos 2151 Rocket 4.4 14:28:20 10° NNE 14:32:21 31° E 14:32:53 30° E
STARLINK-1358 2.7 14:29:17 10° SW 14:32:23 88° WNW 14:35:29 10° NE
STARLINK-1332 2.7 14:29:35 10° SW 14:32:41 87° NW 14:35:46 10° NE
STARLINK-1348 2.7 14:29:55 10° SW 14:33:00 86° NW 14:36:06 10° NE
Orbus 7S 4.1 14:25:46 10° WNW 14:33:17 57° N 14:34:49 29° ENE
STARLINK-1330 2.8 14:30:16 10° SW 14:33:21 85° NW 14:36:27 10° NE
STARLINK-1363 2.8 14:30:35 10° SW 14:33:40 84° NW 14:36:46 10° NE
USA 267 3.3 14:29:36 24° SE 14:33:45 73° NE 14:40:17 10° NNW
Cosmos 1378 Rocket 4.0 14:32:49 35° SE 14:33:53 41° E 14:37:59 10° NNE
STARLINK-1337 2.8 14:30:57 10° SW 14:34:03 83° NW 14:37:08 10° NE
Cosmos 1674 Rocket 3.5 14:31:40 25° SSE 14:34:04 59° E 14:38:23 10° NNE
STARLINK-1342 2.8 14:31:17 10° SW 14:34:22 82° NW 14:37:28 10° NE
STARLINK-1341 3.5 14:30:32 10° SSW 14:34:25 57° SE 14:38:18 10° NE
STARLINK-1364 2.8 14:31:37 10° SW 14:34:42 81° NW 14:37:48 10° NE
STARLINK-1376 2.8 14:31:57 10° SW 14:35:03 80° NW 14:38:09 10° NE
STARLINK-1360 2.9 14:32:18 10° SW 14:35:23 79° NW 14:38:29 10° NE
STARLINK-1361 2.9 14:32:38 10° SW 14:35:44 78° NW 14:38:50 10° NE
STARLINK-1367 2.9 14:32:56 10° SW 14:36:00 77° NW 14:39:05 10° NE
STARLINK-1366 2.9 14:33:17 10° SW 14:36:23 76° NW 14:39:29 10° NE
Cosmos 1634 Rocket 4.0 14:30:50 10° N 14:37:11 85° E 14:42:20 16° S
Meteor 1-13 Rocket 4.5 14:31:41 10° SSW 14:37:13 69° W 14:42:54 10° N
STARLINK-1374 3.4 14:34:41 10° SSW 14:38:37 64° SE 14:42:32 10° NE
Intelsat 5-1 Rocket 0.9 14:36:23 10° W 14:38:34 65° NW 14:38:34 65° NW
IRS-1A Rocket 4.5 14:34:15 13° S 14:39:23 74° WSW 14:45:06 10° NNW
STARLINK-1125 4.4 14:36:58 10° NNW 14:40:45 35° NE 14:41:26 33° ENE
Cosmos 1302 Rocket 4.1 14:37:58 23° SSE 14:40:58 50° ESE 14:46:04 10° NNE
ARGOS 3.5 14:36:47 13° S 14:41:30 64° WSW 14:46:51 10° NNW
SPOT 3 Rocket 3.8 14:41:12 36° ESE 14:42:45 47° ENE 14:47:40 10° N
STARLINK-1339 3.3 14:38:54 10° SSW 14:42:51 73° SE 14:46:48 10° NE
Cosmos 1975 4.3 14:39:28 10° NNW 14:43:07 34° W 14:46:42 10° SSW
ATLAS 2AS CENTAUR R/B 3.0 14:36:07 10° S 14:43:34 57° ESE 14:51:21 10° NE
STARLINK-1109 4.2 14:41:51 10° NNW 14:45:45 40° NE 14:46:13 38° ENE
SJ-6B 2.9 14:45:16 37° S 14:46:33 68° W 14:50:15 10° NNW
STARLINK-1377 3.3 14:43:09 10° SW 14:47:06 83° SE 14:51:05 10° NE
H-2A R/B 3.3 14:44:35 10° SSW 14:49:11 37° W 14:53:55 10° NNW
Cosmos 1943 Rocket 2.2 14:44:24 10° SSW 14:49:55 82° WNW 14:55:29 10° NNE
Intercosmos 24 4.4 14:46:27 10° N 14:50:32 56° E 14:51:40 45° SE
STARLINK-1091 4.0 14:46:44 10° NNW 14:50:43 45° NE 14:50:59 45° ENE
STARLINK-1353 3.4 14:47:22 10° SW 14:51:21 86° NW 14:55:20 10° NE
CZ-2C R/B 3.5 14:47:55 10° N 14:53:21 52° WNW 14:58:40 10° SSW
Milstar 3 Cent rocket 3.2 14:47:31 10° WSW 14:53:37 82° NNW 15:06:17 10° ENE
STARLINK-1375 3.6 14:51:41 10° SW 14:55:39 76° NW 14:59:37 10° NE
STARLINK-1072 3.9 14:51:42 10° NNW 14:55:44 53° NE 14:55:48 53° NE
GPS 2-12 Rocket1 3.5 14:52:30 10° W 14:56:39 42° SSW 14:56:39 42° SSW
STARLINK-1350 3.8 14:55:56 10° SW 14:59:54 67° NW 15:03:51 10° NNE
STARLINK-1096 3.7 14:56:36 10° NNW 15:00:33 60° NE 15:00:33 60° NE
STARLINK-1352 4.0 15:00:18 10° SW 15:04:13 59° NW 15:08:09 10° NNE
STARLINK-1079 3.7 15:01:35 10° NNW 15:05:23 66° NNE 15:05:23 66° NNE
STARLINK-1368 4.3 15:04:41 10° SW 15:08:34 52° NW 15:12:28 10° NNE
Cosmos 2180 Rocket 4.4 15:04:00 10° N 15:10:17 73° E 15:11:43 54° SSE
STARLINK-1116 3.8 15:06:31 10° NW 15:10:09 67° NNW 15:10:09 67° NNW
Cosmos 1833 Rocket 4.0 15:09:47 10° NW 15:14:50 35° WSW 15:17:37 22° SSW
IUS-17 SRM-1 4.2 14:53:41 10° WNW 15:16:52 73° NNE 15:18:18 50° E
STARLINK-1094 4.3 15:16:28 10° NW 15:19:43 53° NW 15:19:43 53° NW
Cosmos 2369 Rocket 2.8 15:18:53 10° SSW 15:24:26 55° WNW 15:29:58 10° N
Skynet4D Del rocket 4.4 15:17:13 10° WSW 15:25:36 76° SSE 15:28:11 47° E
Lacrosse 5 2.6 15:22:53 10° NW 15:27:39 43° WSW 15:27:44 43° WSW
Nadezhda 4 Rocket 4.2 15:26:00 34° SSW 15:28:40 65° W 15:34:43 10° N
GPS 2-14 Rocket1 4.4 15:24:43 10° W 15:26:49 29° W 15:26:49 29° W
Cosmos 2082 Rocket 3.0 15:26:51 10° NNW 15:32:13 44° WSW 15:33:20 39° SW
ATLAS CENTAUR R/B 2.7 15:39:46 41° WNW 15:39:46 41° WNW 15:43:44 10° N
Okean 1 Rocket 4.4 15:36:37 10° N 15:39:14 35° N 15:39:14 35° N
SWIFT 4.4 15:38:17 10° W 15:39:54 22° W 15:39:54 22° W
CENTAUR R/B 4.5 15:42:15 10° N 15:48:52 24° NE 15:49:39 24° ENE
Resurs 01 Rocket 3.3 15:55:14 30° WNW 15:55:14 30° WNW 15:58:08 10° NNW
Terra 4.4 16:06:04 12° NNE 16:06:04 12° NNE 16:06:29 10° NNE
H-2A ROCKET BODY 3.8 16:04:16 10° W 16:09:36 66° N 16:38:12 10° ENE
COSMOS 2455 3.7 16:14:33 47° NW 16:14:33 47° NW 16:19:25 10° N
NOSS 3-2 (A) 4.5 16:41:27 10° NNW 16:48:05 62° NW 16:48:05 62° NW
ATLAS 3B CENTAUR R/B 3.7 16:55:56 10° WNW 17:07:07 55° NW 17:07:07 55° NW
CENTAUR R/B 4.1 17:31:27 10° NNW 17:36:49 42° NW 17:36:49 42° NW
ATLAS 3B R/B 4.4 17:40:43 10° NNW 17:43:39 27° N 17:43:39 27° N
FALCON 9 R/B 4.2 19:41:44 33° NNW 19:44:33 44° NNE 20:04:11 10° E
Cosmos 2263 Rocket 4.2 20:08:04 10° NNE 20:11:08 23° NE 20:11:08 23° NE
ADEOS II 4.3 20:09:52 10° NNE 20:11:51 21° NE 20:11:51 21° NE
Cosmos 2322 Rocket 4.1 20:24:16 24° N 20:24:16 24° N 20:26:29 10° N
SL-16 R/B 3.6 20:40:12 36° NNW 20:40:12 36° NNW 20:43:37 10° NNW
Resurs 1-4 Rocket 4.3 20:40:20 10° NNW 20:41:40 16° NNW 20:41:40 16° NNW
USA 215 4.2 20:53:36 35° NW 20:53:36 35° NW 20:57:04 10° NW
Lacrosse 5 rocket 4.0 20:55:03 17° ENE 20:55:03 17° ENE 20:56:06 10° NE
SL-16 R/B 4.3 20:59:01 16° NW 20:59:01 16° NW 21:00:42 10° NNW
COSMOS 2428 3.9 21:00:41 35° E 21:00:41 35° E 21:05:38 10° NE
Cosmos 2366 rocket 4.4 21:03:26 56° E 21:03:40 57° E 21:09:45 10° NNE
Skynet4D Del rocket 4.3 21:07:24 56° E 21:07:24 56° E 21:11:59 10° ESE
Nadezhda 3 Rocket 4.5 21:05:51 10° NNW 21:10:35 50° NW 21:10:35 50° NW
Cosmos 2360 Rocket 3.5 21:20:25 29° NW 21:20:25 29° NW 21:23:52 10° N
Meteosat 1 Rocket2 3.9 21:30:05 57° SE 21:30:05 57° SE 21:36:41 10° ENE
Cosmos 2333 Rocket 2.0 21:31:32 87° NW 21:31:32 87° NW 21:37:10 10° NNE
Cosmos 864 Rocket 4.2 21:31:13 78° SW 21:31:34 81° W 21:37:42 10° N
Cosmos 2219 Rocket 2.0 21:36:21 83° WSW 21:36:30 85° WNW 21:42:06 10° NNE
Cosmos 2322 4.1 21:37:39 48° NW 21:37:39 48° NW 21:42:43 10° N
EPKM 3.8 21:24:34 10° WNW 21:40:10 68° SSW 21:43:31 10° ESE
CZ-2C R/B 4.5 21:38:07 10° NE 21:42:12 23° E 21:46:07 10° SSE
CZ-3 R/B 4.2 21:13:21 25° WSW 21:47:56 84° NNW 21:59:40 10° ENE
ATLAS 5 CENTAUR R/B 1.6 21:48:27 66° ENE 21:48:27 66° ENE 21:52:08 10° NNE
USA 229 DEB 3.8 21:44:02 10° NNW 21:51:32 71° WSW 21:59:12 10° SSE
USA 229 3.8 21:44:07 10° NNW 21:51:38 71° WSW 21:59:20 10° SSE
NOSS 3-1 (C) 4.2 21:44:39 10° NW 21:52:56 64° WSW 22:01:47 10° SSE
Delta 2 Rocket 4.3 21:50:45 31° WNW 21:53:33 54° N 21:59:23 10° ENE
ADEOS II 4.0 21:50:45 10° NNW 21:52:47 16° NW 21:52:47 16° NW
Meteor 1-28 Rocket 4.0 21:55:42 42° NNW 21:55:42 42° NNW 21:58:17 10° NNW
NOSS 3-3 (A) 3.9 21:53:59 43° S 21:55:46 69° ESE 22:01:39 10° NNE
NOSS 3-3 (C) 3.9 21:54:03 43° S 21:55:52 68° ESE 22:01:45 10° NNE
Cosmos 2263 Rocket 4.2 21:51:53 10° NW 21:52:45 14° NW 21:52:45 14° NW
PSLV R/B 4.4 21:52:40 10° NNE 21:56:39 43° E 21:58:11 30° SSE
deb Centaur AC-2 4.5 21:57:01 52° W 21:58:16 74° NNW 22:03:07 10° ENE
IDEFIX/ARIANE 42P 2.6 21:53:07 10° N 21:58:17 61° WNW 21:59:02 54° WSW
Cosmos 158 Rocket 4.3 21:58:14 34° SSE 22:00:18 61° ESE 22:05:13 10° NNE
NOSS 3-1 (A) 4.2 21:52:39 10° NNW 22:01:04 87° WSW 22:10:05 10° SSE
Meteor 2-3 Rocket 3.6 22:02:42 43° SSW 22:04:34 74° W 22:10:09 10° N
Cosmos 1500 Rocket 4.1 22:02:43 29° SSE 22:04:47 57° E 22:09:09 10° NNE
ARIANE 5 R/B 4.0 22:01:16 10° NNW 22:04:22 21° WNW 22:04:22 21° WNW
ERS-2 2.3 22:05:50 56° NW 22:05:50 56° NW 22:08:53 10° NNW
Cosmos 1980 4.2 22:03:54 24° S 22:07:11 57° ESE 22:12:43 10° NNE
Cosmos 1680 Rocket 3.4 22:06:02 40° SSW 22:07:59 90° W 22:13:16 10° NNE
Cosmos 1408 Rocket 3.8 22:08:50 47° WNW 22:08:50 47° WNW 22:12:51 10° N
SL-24 R/B - RUBIN 2 4.1 22:10:05 37° SSW 22:12:19 87° ESE 22:18:20 10° NNE
SL-4 R/B 3.4 22:08:37 10° NNW 22:13:01 43° NE 22:17:08 10° ESE
Cosmos 923 Rocket 4.1 22:13:00 42° WSW 22:14:18 53° WNW 22:19:22 10° N
Cosmos 1606 2.5 22:12:54 10° N 22:16:40 73° W 22:17:31 50° SSW
STARLINK-1041 4.4 22:15:38 31° S 22:17:02 43° SE 22:20:58 10° NE
STARLINK-1038 4.2 22:20:25 31° S 22:22:00 50° SE 22:26:00 10° NE
CZ-2C R/B 4.2 22:21:05 10° NNW 22:23:45 23° WNW 22:23:45 23° WNW
H-2A R/B 2.2 22:23:05 31° SSW 22:24:53 53° W 22:29:13 10° NNW
Aurora 2 Rocket 3.0 22:25:01 28° SSE 22:25:14 28° SSE 22:27:59 10° E
GEOS 3 Rocket 3.8 22:20:58 10° S 22:25:46 43° WSW 22:30:40 10° NW
GPS 2-17 Rocket1 2.8 22:24:39 38° WSW 22:26:12 79° S 22:30:32 10° E
STARLINK-1046 4.0 22:25:11 31° SSW 22:26:57 58° SE 22:31:00 10° NE
Cosmos 1633 2.6 22:27:23 45° SW 22:28:07 55° W 22:31:38 10° N
Cosmos 2239 Rocket 4.4 22:23:43 15° S 22:29:06 79° W 22:35:27 10° N
CZ-4B R/B 3.3 22:28:42 10° SE 22:31:21 28° ENE 22:34:02 10° NNE
Lacrosse 5 rocket 3.5 22:30:42 13° WNW 22:31:24 13° NW 22:33:20 10° NNW
STARLINK-1039 3.8 22:29:58 29° SSW 22:31:56 67° SE 22:36:02 10° NE
Cosmos 2237 Rocket 2.1 22:28:57 20° SSW 22:32:55 84° WNW 22:38:37 10° NNE
Cosmos 1151 Rocket 3.3 22:29:31 10° NNW 22:33:44 48° W 22:36:16 22° SSW
ATLAS 2A CENTAUR R/B 3.6 22:32:11 22° SW 22:35:50 38° SSE 22:38:43 10° E
deb Chang Zheng 4 3.9 22:31:52 10° N 22:35:57 46° WNW 22:37:55 26° SW
STARLINK-1045 3.6 22:34:46 27° SSW 22:36:54 78° SE 22:41:02 10° NE
Iridium 4 Rocket 3.3 22:33:38 10° S 22:38:20 84° W 22:43:32 10° N
STARLINK-1050 3.5 22:39:34 25° SW 22:41:53 90° E 22:46:01 10° NE
Sich 1 4.0 22:38:30 10° SSE 22:42:39 47° E 22:46:46 10° NNE
COSMOS 2428 4.2 22:42:44 17° W 22:44:43 20° WNW 22:48:46 10° NNW
Cosmos 1515 Rocket 3.4 22:40:30 10° N 22:44:48 70° W 22:49:05 10° S
STARLINK-1055 3.5 22:44:20 23° SW 22:46:50 79° NW 22:50:58 10° NE
Atlas Centaur 2 3.7 22:43:21 11° SSW 22:47:16 21° SSE 22:50:55 10° ESE
PAYLOAD A 4.3 22:46:06 10° N 22:50:39 43° WNW 22:54:36 14° SW
Cosmos 1844 Rocket 2.8 22:45:48 10° NNW 22:51:08 50° WSW 22:56:28 10° S
STARLINK-1022 3.6 22:49:07 21° SW 22:51:48 69° NW 22:55:54 10° NNE
Cosmos 1346 Rocket 3.4 22:49:33 20° SW 22:51:49 36° W 22:55:31 10° NNW
SL-16 R/B 3.2 22:49:53 10° S 22:55:13 45° ESE 23:00:34 10° NNE
FUSE 4.4 22:49:56 10° WNW 22:55:16 62° N 23:00:37 10° E
Cosmos 2344 4.5 22:50:13 16° WSW 22:55:23 31° WNW 23:01:52 10° N
STARLINK-1042 3.8 22:53:54 18° SW 22:56:47 59° NW 23:00:52 10° NNE
Skynet4D Del rocket 4.3 22:53:06 11° W 22:58:26 35° SSW 23:03:29 10° SE
IUS-26 SRM-1 4.3 22:56:23 16° SW 22:59:07 56° SSE 23:13:58 10° ENE
CZ-4B R/B 3.9 22:57:27 10° NNE 23:00:50 40° E 23:04:14 10° S
STARLINK-1056 3.9 22:58:41 16° WSW 23:01:45 52° NW 23:05:47 10° NNE
STARLINK-1054 4.1 23:03:28 14° WSW 23:06:44 45° NW 23:10:42 10° NNE
Cosmos 1934 Rocket 4.1 23:01:04 10° SSW 23:06:58 52° W 23:12:50 10° N
STARLINK-1444 3.2 23:07:43 10° WNW 23:09:59 29° SW 23:12:21 10° S
STARLINK-1452 3.2 23:08:22 10° WNW 23:10:37 29° SW 23:12:57 10° S
STARLINK-1392 3.3 23:09:12 10° WNW 23:11:24 28° SW 23:13:43 10° S
STARLINK-1399 3.3 23:09:14 10° WNW 23:11:26 27° SW 23:13:46 10° S
STARLINK-1393 3.3 23:09:16 10° WNW 23:11:28 27° SW 23:13:48 10° S
STARLINK-1394 3.3 23:09:17 10° WNW 23:11:30 27° SW 23:13:49 10° S
STARLINK-1395 3.3 23:09:20 10° WNW 23:11:32 28° SW 23:13:52 10° S
STARLINK-1397 3.3 23:09:20 10° WNW 23:11:33 27° SW 23:13:52 10° S
STARLINK-1396 3.3 23:09:21 10° WNW 23:11:33 27° SW 23:13:53 10° S
STARLINK-1414 3.3 23:09:21 10° WNW 23:11:33 27° SW 23:13:53 10° S
STARLINK-1408 3.3 23:09:24 10° WNW 23:11:37 27° SW 23:13:56 10° S
STARLINK-1404 3.3 23:09:26 10° WNW 23:11:39 27° SW 23:13:58 10° S
STARLINK-1416 3.3 23:09:26 10° WNW 23:11:39 27° SW 23:13:59 10° S
STARLINK-1415 3.3 23:09:28 10° WNW 23:11:41 27° SW 23:14:00 10° S
STARLINK-1406 3.3 23:09:30 10° WNW 23:11:42 27° SW 23:14:02 10° S
STARLINK-1450 3.3 23:09:29 10° WNW 23:11:42 27° SW 23:14:02 10° S
STARLINK-1062 4.3 23:08:16 12° WSW 23:11:44 39° NW 23:15:37 10° NNE
STARLINK-1401 3.3 23:09:31 10° WNW 23:11:44 27° SW 23:14:03 10° S
STARLINK-1417 3.3 23:09:35 10° WNW 23:11:47 27° SW 23:14:06 10° S
STARLINK-1402 3.3 23:09:36 10° WNW 23:11:48 27° SW 23:14:07 10° S
STARLINK-1413 3.3 23:09:36 10° WNW 23:11:48 27° SW 23:14:07 10° S
STARLINK-1419 3.3 23:09:36 10° WNW 23:11:49 27° SW 23:14:08 10° S
STARLINK-1422 3.3 23:09:41 10° WNW 23:11:54 27° SW 23:14:14 10° S
STARLINK-1453 3.3 23:09:43 10° WNW 23:11:55 27° SW 23:14:15 10° S
STARLINK-1398 3.3 23:09:44 10° WNW 23:11:57 27° SW 23:14:17 10° S
STARLINK-1420 3.3 23:09:45 10° WNW 23:11:58 27° SW 23:14:18 10° S
STARLINK-1440 3.3 23:09:47 10° WNW 23:12:00 27° SW 23:14:20 10° S
STARLINK-1436 (VISORSAT) 3.3 23:09:48 10° WNW 23:12:01 27° SW 23:14:21 10° S
STARLINK-1460 3.3 23:09:48 10° WNW 23:12:01 27° SW 23:14:21 10° S
Cosmos 2123 Rocket 4.2 23:05:48 10° N 23:12:03 81° E 23:18:15 10° S
STARLINK-1410 3.3 23:09:53 10° WNW 23:12:05 27° SW 23:14:24 10° S
STARLINK-1423 3.3 23:09:53 10° WNW 23:12:05 27° SW 23:14:24 10° S
STARLINK-1421 3.3 23:09:53 10° WNW 23:12:05 27° SW 23:14:25 10° S
STARLINK-1400 3.3 23:09:54 10° WNW 23:12:06 27° SW 23:14:25 10° S
STARLINK-1454 3.3 23:09:55 10° WNW 23:12:07 27° SW 23:14:26 10° S
STARLINK-1458 3.3 23:09:57 10° WNW 23:12:09 27° SW 23:14:28 10° S
STARLINK-1445 3.3 23:10:00 10° WNW 23:12:12 27° SW 23:14:31 10° S
STARLINK-1405 3.3 23:10:01 10° WNW 23:12:14 27° SW 23:14:34 10° S
STARLINK-1407 3.3 23:10:01 10° WNW 23:12:14 27° SW 23:14:33 10° S
STARLINK-1446 3.3 23:10:02 10° WNW 23:12:14 27° SW 23:14:34 10° S
STARLINK-1370 3.3 23:10:05 10° WNW 23:12:16 27° SW 23:14:36 10° S
STARLINK-1439 3.3 23:10:05 10° WNW 23:12:17 27° SW 23:14:37 10° S
STARLINK-1456 3.3 23:10:05 10° WNW 23:12:17 27° SW 23:14:37 10° S
STARLINK-1457 3.3 23:10:05 10° WNW 23:12:17 27° SW 23:14:37 10° S
STARLINK-1451 3.3 23:10:05 10° WNW 23:12:18 27° SW 23:14:37 10° S
STARLINK-1409 3.3 23:10:06 10° WNW 23:12:18 27° SW 23:14:37 10° S
STARLINK-1447 3.3 23:10:07 10° WNW 23:12:20 27° SW 23:14:38 10° S
STARLINK-1455 3.3 23:10:07 10° WNW 23:12:20 27° SW 23:14:39 10° S
STARLINK-1437 3.3 23:10:07 10° WNW 23:12:20 27° SW 23:14:39 10° S
STARLINK-1441 3.3 23:10:09 10° WNW 23:12:22 27° SW 23:14:41 10° S
STARLINK-1443 3.3 23:10:12 10° WNW 23:12:24 27° SW 23:14:44 10° S
STARLINK-1351 3.3 23:10:14 10° WNW 23:12:26 27° SW 23:14:45 10° S
STARLINK-1418 3.3 23:10:14 10° WNW 23:12:26 27° SW 23:14:45 10° S
STARLINK-1403 3.3 23:10:15 10° WNW 23:12:26 27° SW 23:14:46 10° S
STARLINK-1434 3.3 23:10:15 10° WNW 23:12:27 27° SW 23:14:46 10° S
STARLINK-1442 3.3 23:10:15 10° WNW 23:12:27 27° SW 23:14:46 10° S
STARLINK-1448 3.3 23:10:17 10° WNW 23:12:29 27° SW 23:14:48 10° S
STARLINK-1433 3.3 23:10:18 10° WNW 23:12:30 27° SW 23:14:49 10° S
STARLINK-1449 3.3 23:10:20 10° WNW 23:12:32 27° SW 23:14:51 10° S
STARLINK-1438 3.3 23:10:22 10° WNW 23:12:34 27° SW 23:14:53 10° S
STARLINK-1411 3.4 23:10:30 10° WNW 23:12:42 26° SW 23:15:00 10° S
STARLINK-1412 3.4 23:10:30 10° WNW 23:12:42 26° SW 23:15:01 10° S
Cosmos 2278 Rocket 4.0 23:07:46 10° N 23:13:00 37° ENE 23:18:11 10° SE
USA 234 3.5 23:07:30 10° NNE 23:13:52 57° NW 23:20:13 10° SW
CZ-2C R/B 3.7 23:16:01 10° NNW 23:20:12 25° WNW 23:24:21 10° SW
FALCON 9 DEB 4.4 23:17:08 10° NNW 23:20:27 45° NE 23:23:49 10° SE
STARLINK-60 4.4 23:18:26 10° W 23:20:40 18° WSW 23:22:53 10° SSW
CZ-4B R/B 4.3 23:17:34 10° N 23:21:55 56° WNW 23:26:18 10° SSW
OAO 3 Rocket 3.5 23:18:18 10° SW 23:22:56 59° SSE 23:27:31 10° ENE
Cosmos 1633 Rocket 3.1 23:21:51 10° S 23:26:11 89° W 23:30:31 10° N
